Weather History for KBIS - January, 2014

Change the Weather History Date:

Friday, January 17, 2014

  Actual Average Record
Temperature  
Mean Temperature 21 °F 12 °F  
Max Temperature 38 °F 23 °F 54 °F (1926)
Min Temperature 4 °F 2 °F -40 °F (1967)
Degree Days  
Heating Degree Days 44 53  
Month to date heating degree days 886 896  
Since 1 July heating degree days 4616 4396  
Cooling Degree Days 0 0  
Month to date cooling degree days 0 0  
Year to date cooling degree days 0 0  
Moisture  
Dew Point 16 °F    
Average Humidity 80    
Maximum Humidity 96    
Minimum Humidity 63    
Precipitation  
Precipitation 0.00 in 0.02 in 0.58 in (1996)
Month to date precipitation 0.08 0.26  
Year to date precipitation 0.08 0.26  
Snow  
Snow 0.00 in 0.20 in 13.20 in (1996)
Month to date snowfall 2.8 5.3  
Since 1 July snowfall 19.9 25.8  
Snow Depth 5.00 in    
Sea Level Pressure  
Sea Level Pressure 29.96 in    
Wind  
Wind Speed 6 mph (West)    
Max Wind Speed 33 mph    
Max Gust Speed 45 mph    
Visibility 10 miles    
Events      
T = Trace of Precipitation, MM = Missing Value Source: NWS Daily Summary

Daily Weather History Graph

Daily Weather History Graph

Search for Another Location

Airport or City:

Trip Planner

Search our weather history database for the weather conditions in past years. The results will help you decide how hot, cold, wet, or windy it might be!

Date:

Astronomy

Jan. 17, 2014 Rise Set
Actual Time 8:22 AM CST 5:24 PM CST
Civil Twilight 7:48 AM CST 5:58 PM CST
Nautical Twilight 7:10 AM CST 6:35 PM CST
Astronomical Twilight 6:34 AM CST 7:12 PM CST
Moon 7:22 PM CST (1/17) 8:42 AM CST (1/17)
Length of Visible Light 10h 10m
Length of Day
9h 02m
Full, 98% of the Moon is Illuminated
Jan 17
Full
Jan 23
Last Quarter
Jan 30
New
Feb 6
First Quarter
Feb 14
Full

Hourly Weather History & Observations

Time (CST) Temp. Windchill Dew Point Humidity Pressure Visibility Wind Dir Wind Speed Gust Speed Precip Events Conditions
12:52 AM 12.0 °F 4.1 °F 7.0 °F 80% 30.26 in 10.0 mi WSW 4.6 mph - N/A   Clear
1:52 AM 10.0 °F 3.6 °F 6.1 °F 84% 30.24 in 10.0 mi WNW 3.5 mph - N/A   Clear
2:52 AM 10.0 °F - 5.0 °F 80% 30.22 in 10.0 mi Calm Calm - N/A   Clear
3:52 AM 10.9 °F 2.9 °F 7.0 °F 84% 30.20 in 10.0 mi SW 4.6 mph - N/A   Clear
4:52 AM 10.9 °F 4.7 °F 7.0 °F 84% 30.18 in 10.0 mi West 3.5 mph - N/A   Clear
5:52 AM 10.0 °F - 6.1 °F 84% 30.16 in 10.0 mi Calm Calm - N/A   Clear
6:52 AM 6.1 °F - 3.9 °F 91% 30.15 in 10.0 mi Calm Calm - N/A   Clear
7:52 AM 7.0 °F - 3.0 °F 84% 30.13 in 10.0 mi Calm Calm - N/A   Clear
8:52 AM 5.0 °F - 3.0 °F 92% 30.10 in 10.0 mi Calm Calm - N/A   Partly Cloudy
9:52 AM 10.0 °F - 6.1 °F 84% 30.08 in 10.0 mi Calm Calm - N/A   Scattered Clouds
10:52 AM 16.0 °F - 12.9 °F 88% 30.06 in 10.0 mi Calm Calm - N/A   Partly Cloudy
1:52 PM 30.9 °F 24.3 °F 21.0 °F 67% 29.90 in 10.0 mi West 6.9 mph - N/A   Overcast
2:52 PM 32.0 °F 24.8 °F 21.9 °F 66% 29.87 in 10.0 mi SW 8.1 mph - N/A   Overcast
3:52 PM 33.1 °F - 24.1 °F 70% 29.86 in 10.0 mi Calm Calm - N/A   Overcast
4:52 PM 33.1 °F 27.7 °F 25.0 °F 72% 29.81 in 10.0 mi SSW 5.8 mph - N/A   Overcast
5:52 PM 32.0 °F 27.5 °F 25.0 °F 75% 29.78 in 10.0 mi SW 4.6 mph - N/A   Overcast
6:52 PM 33.1 °F 27.7 °F 26.1 °F 75% 29.76 in 10.0 mi West 5.8 mph - N/A   Scattered Clouds
7:52 PM 30.0 °F 23.2 °F 25.0 °F 82% 29.74 in 10.0 mi West 6.9 mph - N/A   Clear
8:52 PM 34.0 °F 23.4 °F 27.0 °F 75% 29.71 in 10.0 mi WNW 17.3 mph - N/A   Clear
9:52 PM 37.0 °F 25.9 °F 28.9 °F 73% 29.69 in 10.0 mi WNW 23.0 mph 31.1 mph N/A   Mostly Cloudy
10:52 PM 37.0 °F 26.7 °F 28.9 °F 73% 29.70 in 10.0 mi NW 19.6 mph 33.4 mph N/A   Partly Cloudy
11:52 PM 37.9 °F 26.6 °F 28.9 °F 70% 29.70 in 10.0 mi NW 25.3 mph 43.7 mph N/A   Overcast